STARLINK-5806, 56007

Orbit data source: Space-Track

STARLINK-5806, 56007 is a payload satellite owned by SpaceX/Seattle (US) in LEO that was launched on Fri, 24 Mar 2023 UTC via an FALCON 9 launch vehicle from the Air Force Eastern Test Range (AFETR). Payload-class satellites include a variety of spacecraft equipped with specific instruments for various scientific and technological missions. These include communications satellites like Starlink; space stations such as the ISS; scientific satellites like the Hubble; Earth observation satellites from companies like Planet Labs, Umbra, and HawkEye 360; GPS; miniature CubeSats for education and research; and military/defense satellites.

Loading next visibility...
Identifier
56007, 2023-042X
Orbit
LEO
Country
Flag of USUS
Related business
Manufacturer
SpaceX/Seattle
Mission
Operational Commercial Communications
Bus & Motor
STARLINK, Unknown motor
Mass
305 kg wet, ~290 kg dry
Launch date (UTC)
2023-03-24 (3 years ago)
Launch vehicle
FALCON 9
Launch site
Air Force Eastern Test Range (AFETR)
Object type
Payload
Rocket body
Debris
Shape & HBR
Box + 1 Pan, 10.1 m
Radar Cross Section
11.087 m², Large (>1 m²)

Expand to show TLE details & history
Last TLE update: 2 days ago

TLE from 2 days ago
0 STARLINK-5806
1 56007U 23042X   26171.11137290  .00000522  00000-0  28497-4 0  9993
2 56007  43.0009 201.1666 0001235 267.5577  92.5134 15.27588263178533
Epoch: 2026-06-20T02:40Z
TLE epoch observation values (Epoch: 2026-06-20T02:40:22.618Z)
Latitude
0.00003°
Longitude
-107.2583°
Altitude
482.837 km
Speed
7.626 km/s
True Right ascension
13h 24m 39s
True Declination
0° 00' 00"
Sunlit
Object was in daylight at epoch
Visualization orbit readout
Latitude
Unknown
Longitude
Unknown
Altitude
Unknown
Speed
Unknown
Apparent Right ascension
Unknown
Apparent Declination
Unknown
Sunlit
N/A
Visualization observer readout
Local Sidereal Time
21:26:09
Azimuth
Unknown
Elevation
Unknown
Doppler factor
Unknown
Orbital elements
Apogee altitude
485.817 km
Perigee altitude
484.122 km
Semi-major axis
6,863.106 km
Eccentricity
0.00012
Inclination
43.0009°
RAAN
201.1666°
Arg. of periapsis
267.5577°
True anomaly
92.52754°
Mean anomaly
92.5134°
Eccentric anomaly
92.52047°
Mean motion
3.81735 °/min
Orbital period
94.31 mins
BSTAR
0.000028497
Loading maneuver chart data...
Computing Atmospheric mass density...
Loading historical data...
Loading historical data...
Loading historical data...
Loading historical data...
Loading historical data...
Loading historical data...
Loading historical data...

Documentation

Showing up to 5 results
|